Location: Dillon
(41.1766°N, 107.0923°W)
Time: 04:19:47
(UTC+00:00)

Tiangong - Pass Details

Date: 01 February 2022
Orbit: 386 x 389 km, 41.5° (Epoch: 22 May)

Event Time Altitude Azimuth Distance (km) Brightness Sun altitude
Rises 02:53:08 0° 278° (W) 2,350 6.3 -28.2°
Reaches altitude 10° 02:55:15 10° 277° (W) 1,489 5.0 -28.6°
Enters shadow 02:56:14 18° 277° (W) 1,093 4.1 -28.8°
